Location: Dammartin
(48.9032°N, 1.6195°E)
Time: 13:58:28
(UTC+00:00)

YUBILEINY - Pass Details

Date: 07 December 2023
Orbit: 1479 x 1508 km, 82.5° (Epoch: 02 March)

Event Time Altitude Azimuth Distance (km) Brightness Sun altitude
Rises 19:46:24 0° 349° (N) 4,631 ? -36.6°
Reaches altitude 10° 19:49:19 10° 351° (N) 3,644 ? -37.1°
Enters shadow 19:54:51 44° 359° (N) 1,953 ? -38.0°
